Weather in Vozdvizhenye

Russia / Ivanovo Oblast     57°29′56″N   42°00′57″E
temp.,
°C
wind,
m/s
gust,
m/s
humid.,
%
clouds,
%
prec.,
mm/h
press.,
hPa
HPBL,
m
27 july, tue
tue2700:00+15wnw39675 0.0 1019168
03:00+13nw25810 0.0 102084
06:00+15nnw24775 0.0 1020142
09:00+22nnw245517 0.0 1019813
12:00+25nnw364153 0.0 10192031
15:00+23n3548100 0.0 1018924
18:00+19nw23705 0.1 101861
21:00+16wnw2284100 0.1 101814
28 july, wed
wed2800:00+15nnw22924 0.6 101836
03:00+13nnw11950 0.6 101812
06:00+15nne12881 0.0 101869
09:00+21se11590 0.0 1016512
12:00+26wsw123971 0.0 10151647
15:00+27wsw1334100 0.0 10132128
18:00+25ese2347100 0.0 1011296
21:00+18sw278488 1.1 1011141
29 july, thu
thu2900:00+17sw2292100 0.1 101043
03:00+17s1192100 0.2 100821
06:00+16ssw1395100 0.3 1006131
09:00+18nne228762 0.4 1005455
12:00+22ne227089 1.0 10041049
15:00+23e126941 2.7 1004632
18:00+22wsw2377100 2.4 1004164
21:00+18sw38897 2.6 1003132
30 july, fri
fri3000:00+17sw279210 0.1 1004158
03:00+15w38915 0.1 1004151
06:00+16w39845 0.0 1005239
09:00+24w475259 0.0 1005889
12:00+28wnw4635100 0.0 10052738
15:00+23w2554100 0.0 1005156
18:00+23w265160 0.0 1005127
21:00+20ssw116318 0.0 100512
31 july, sat
sat3100:00+20sw2669100 0.0 1005142
03:00+19sw2478100 0.2 100476
06:00+18wsw2686100 0.1 1004186
09:00+24wsw465566 0.1 1004736
12:00+23wsw255571 0.0 1004639
15:00+22w5106358 0.2 1003745
18:00+25sw384244 0.0 10031329
21:00+21sw31049100 0.0 1003289